Ketchikan, AK

7:31 AM AKST on November 15, 2018 (GMT -0900)
Ketchikan International

Weather History for PAKT - June, 2018

Change the Weather History Date:

Wednesday, June 27, 2018

  Actual Average Record
Temperature  
Mean Temperature 54 °F -  
Max Temperature 62 °F 63 °F 75 °F (1950)
Min Temperature 46 °F 47 °F 38 °F (1976)
Degree Days  
Heating Degree Days 12    
Growing Degree Days 4 (Base 50)    
Moisture  
Dew Point 45 °F    
Average Humidity 71    
Maximum Humidity 86    
Minimum Humidity 54    
Precipitation  
Precipitation 0.00 in - - ()
Sea Level Pressure  
Sea Level Pressure 30.09 in    
Wind  
Wind Speed 4 mph (SE)    
Max Wind Speed 10 mph    
Max Gust Speed -    
Visibility 10 miles    
Events      
Averages and records for this station are not official NWS values.
T = Trace of Precipitation, MM = Missing Value Source: NWS Daily Summary

Daily Weather History Graph

Daily Weather History Graph

Search for Another Location

Airport or City:

Astronomy

Jun. 27, 2018 Rise Set
Actual Time 4:07 AM AKDT 9:32 PM AKDT
Civil Twilight 3:08 AM AKDT 10:31 PM AKDT
Nautical Twilight 1:22 AM AKDT 12:17 AM AKDT
Astronomical Twilight Sun does not rise Sun does not rise
Moon 9:03 PM AKDT (6/27) 4:07 AM AKDT (6/27)
Length of Visible Light 19h 23m
Length of Day
17h 25m
Full, 100% of the Moon is Illuminated
Jun 27
Full
Jun 27
Full
Jul 5
Last Quarter
Jul 12
New
Jul 19
First Quarter

Hourly Weather History & Observations

Time (AKDT) Temp. Dew Point Humidity Pressure Visibility Wind Dir Wind Speed Gust Speed Precip Events Conditions
12:53 AM 46.9 °F 42.1 °F 83% 30.17 in 10.0 mi Calm Calm - N/A   Mostly Cloudy
1:53 AM 46.0 °F 42.1 °F 86% 30.17 in 10.0 mi Calm Calm - N/A   Overcast
2:53 AM 48.9 °F 44.1 °F 83% 30.15 in 10.0 mi SE 3.5 mph - N/A   Overcast
3:53 AM 48.9 °F 45.0 °F 86% 30.14 in 10.0 mi SE 3.5 mph - N/A   Overcast
4:53 AM 50.0 °F 45.0 °F 83% 30.14 in 10.0 mi SE 3.5 mph - N/A   Overcast
5:53 AM 52.0 °F 46.9 °F 83% 30.13 in 10.0 mi Calm Calm - N/A   Overcast
6:05 AM 51.1 °F 46.9 °F 86% 30.12 in 10.0 mi Calm Calm - N/A   Overcast
6:53 AM 53.1 °F 46.0 °F 77% 30.13 in 10.0 mi SE 5.8 mph - N/A   Overcast
7:53 AM 53.6 °F 46.4 °F 77% 30.12 in 10.0 mi ESE 5.8 mph - N/A   Overcast
8:53 AM 55.4 °F 46.4 °F 72% 30.11 in 10.0 mi East 4.6 mph - N/A   Overcast
10:53 AM 55.4 °F 44.6 °F 67% 30.10 in 10.0 mi SSE 3.5 mph - N/A   Overcast
11:53 AM 57.2 °F 44.6 °F 63% 30.09 in 10.0 mi ESE 9.2 mph - N/A   Overcast
12:53 PM 57.2 °F 44.6 °F 63% 30.09 in 10.0 mi SE 5.8 mph - N/A   Mostly Cloudy
1:53 PM 57.2 °F 44.6 °F 63% 30.09 in 10.0 mi ESE 9.2 mph - N/A   Mostly Cloudy
2:53 PM 57.9 °F 45.0 °F 62% 30.08 in 10.0 mi ESE 9.2 mph - N/A   Mostly Cloudy
3:53 PM 61.0 °F 44.1 °F 54% 30.06 in 10.0 mi ESE 9.2 mph - N/A   Mostly Cloudy
4:53 PM 60.8 °F 44.6 °F 55% 30.05 in 10.0 mi SE 10.4 mph - N/A   Mostly Cloudy
5:53 PM 60.8 °F 44.6 °F 55% 30.04 in 10.0 mi SSE 10.4 mph - N/A   Mostly Cloudy
6:53 PM 60.8 °F 44.6 °F 55% 30.03 in 10.0 mi SSE 8.1 mph - N/A   Mostly Cloudy
7:53 PM 59.0 °F 43.0 °F 55% 30.03 in 10.0 mi ESE 8.1 mph - N/A   Partly Cloudy
8:53 PM 55.0 °F 45.0 °F 69% 30.03 in 10.0 mi SE 4.6 mph - N/A   Overcast
9:53 PM 53.1 °F 45.0 °F 74% 30.02 in 10.0 mi SSE 6.9 mph - N/A   Overcast
10:53 PM 51.1 °F 45.0 °F 80% 30.01 in 10.0 mi SSE 4.6 mph - N/A   Partly Cloudy
11:53 PM 51.1 °F 44.1 °F 77% 30.00 in 10.0 mi SE 4.6 mph - N/A   Clear